Weather History for KPHD - May, 2013

Change the Weather History Date:

Sunday, May 19, 2013

  Actual Average Record
Temperature  
Mean Temperature 70 °F 61 °F  
Max Temperature 81 °F 73 °F 94 °F (1962)
Min Temperature 59 °F 49 °F 31 °F (1976)
Degree Days  
Heating Degree Days 0 6  
Month to date heating degree days 78 143  
Since 1 July heating degree days 5518 5558  
Cooling Degree Days 5 1  
Month to date cooling degree days 22 10  
Year to date cooling degree days 34 17  
Growing Degree Days 20 (Base 50)    
Moisture  
Dew Point 61 °F    
Average Humidity 74    
Maximum Humidity 97    
Minimum Humidity 51    
Precipitation  
Precipitation 0.00 in 0.15 in 0.88 in (1987)
Month to date precipitation 1.43 2.38  
Year to date precipitation 9.50 13.81  
Sea Level Pressure  
Sea Level Pressure 30.02 in    
Wind  
Wind Speed 5 mph (SE)    
Max Wind Speed 13 mph    
Max Gust Speed 17 mph    
Visibility 10 miles    
Events      
T = Trace of Precipitation, MM = Missing Value Source: NWS Daily Summary

Daily Weather History Graph

Daily Weather History Graph

Search for Another Location

Airport or City:

Trip Planner

Search our weather history database for the weather conditions in past years. The results will help you decide how hot, cold, wet, or windy it might be!

Date:

Astronomy

May. 19, 2013 Rise Set
Actual Time 6:05 AM EDT 8:39 PM EDT
Civil Twilight 5:34 AM EDT 9:10 PM EDT
Nautical Twilight 4:55 AM EDT 9:50 PM EDT
Astronomical Twilight 4:11 AM EDT 10:34 PM EDT
Moon 2:41 PM EDT (5/19) 2:29 AM EDT (5/19)
Length of Visible Light 15h 36m
Length of Day
14h 33m
Waxing Gibbous, 65% of the Moon is Illuminated
May 19
Waxing Gibbous
May 25
Full
May 31
Last Quarter
Jun 8
New
Jun 16
First Quarter

Hourly Weather History & Observations

Time (EDT) Temp. Dew Point Humidity Pressure Visibility Wind Dir Wind Speed Gust Speed Precip Events Conditions
12:53 AM 64.9 °F 60.1 °F 84% 30.04 in 10.0 mi SE 4.6 mph - N/A   Clear
1:53 AM 64.9 °F 59.0 °F 81% 30.04 in 10.0 mi ESE 4.6 mph - N/A   Clear
2:53 AM 62.1 °F 59.0 °F 90% 30.03 in 10.0 mi Calm Calm - N/A   Clear
3:53 AM 62.1 °F 59.0 °F 90% 30.02 in 10.0 mi SE 4.6 mph - N/A   Clear
4:53 AM 62.1 °F 59.0 °F 90% 30.02 in 9.0 mi SE 3.5 mph - N/A   Clear
6:53 AM 61.0 °F 59.0 °F 93% 30.07 in 7.0 mi ESE 3.5 mph - N/A   Clear
8:53 AM 66.0 °F 61.0 °F 84% 30.08 in 10.0 mi ESE 6.9 mph - N/A   Overcast
9:53 AM 69.1 °F 61.0 °F 75% 30.07 in 10.0 mi SE 5.8 mph - N/A   Overcast
10:53 AM 73.0 °F 61.0 °F 66% 30.06 in 10.0 mi SE 8.1 mph - N/A   Mostly Cloudy
11:53 AM 75.9 °F 62.1 °F 62% 30.03 in 10.0 mi ESE 8.1 mph - N/A   Partly Cloudy
12:53 PM 75.9 °F 62.1 °F 62% 30.03 in 10.0 mi SE 10.4 mph - N/A   Mostly Cloudy
1:53 PM 77.0 °F 61.0 °F 58% 30.02 in 10.0 mi SE 6.9 mph - N/A   Overcast
4:53 PM 78.1 °F 62.1 °F 58% 29.98 in 10.0 mi South 5.8 mph - N/A   Overcast
5:53 PM 78.1 °F 62.1 °F 58% 29.96 in 10.0 mi ESE 6.9 mph - N/A   Overcast
6:53 PM 79.0 °F 62.1 °F 56% 29.96 in 10.0 mi ESE 6.9 mph - N/A   Clear
7:53 PM 77.0 °F 62.1 °F 60% 29.96 in 10.0 mi ESE 8.1 mph - N/A   Clear
8:53 PM 73.9 °F 62.1 °F 66% 29.98 in 10.0 mi Calm Calm - N/A   Scattered Clouds
9:53 PM 70.0 °F 63.0 °F 78% 30.00 in 10.0 mi Calm Calm - N/A   Scattered Clouds
10:53 PM 69.1 °F 63.0 °F 81% 29.99 in 10.0 mi Calm Calm - N/A   Partly Cloudy
11:53 PM 66.9 °F 63.0 °F 87% 29.98 in 10.0 mi ESE 3.5 mph - N/A   Clear